This demonstration page uses our WeatherBlox Daily Observations layout. Learn more.

Left ArrowRight Arrow

39.08367, -84.50855

Hourly Observations for August 3, 2020

Temp ( °F °C ) Dew Point ( °F °C ) Humidity (%) Winds ( mph kmh ) Pressure ( in mb ) Visibility ( mi km ) Precip ( " mm )
12:53 am 00:53 Clear 67 19.4 65 18.3 93 93 N N/A 29.98 1015 9 14 N/A
1:53 am 01:53 Clear with Mist and Fog 66 18.9 65 18.3 96 96 N N/A 29.98 1015 5 8 N/A
2:24 am 02:24 Clear with Mist and Fog 65 18.3 64 17.8 97 97 N N/A 29.98 1015 2 3 N/A
2:34 am 02:34 Partly Cloudy with Mist and Fog 66 18.9 65 18.3 96 96 N N/A 29.98 1015 4 6 N/A
2:53 am 02:53 Mostly Cloudy 66 18.9 65 18.3 96 96 N N/A 29.97 1015 8 13 N/A
3:53 am 03:53 Mostly Cloudy 67 19.4 66 18.9 97 97 NE 3 6 29.97 1015 9 14 N/A
4:53 am 04:53 Cloudy 68 20 66 18.9 93 93 N N/A 29.96 1015 9 14 N/A
5:53 am 05:53 Mostly Cloudy 67 19.4 65 18.3 93 93 S 6 9 29.98 1015 10 16 N/A
6:53 am 06:53 Mostly Cloudy 67 19.4 65 18.3 93 93 N N/A 29.99 1016 10 16 N/A
7:53 am 07:53 Cloudy 69 20.6 66 18.9 90 90 SSW 5 7 30.01 1016 10 16 N/A
8:53 am 08:53 Partly Cloudy 71 21.7 66 18.9 84 84 SSW 5 7 30.01 1016 10 16 0.00 0.00
9:53 am 09:53 Mostly Sunny 75 23.9 66 18.9 74 74 SSW 3 6 30.00 1016 10 16 N/A
10:53 am 10:53 Partly Cloudy 77 25 67 19.4 71 71 VRB 3 6 30.01 1016 10 16 N/A
11:53 am 11:53 Partly Cloudy 79 26.1 66 18.9 65 65 SSW 7 11 30.01 1016 10 16 N/A
12:53 pm 12:53 Mostly Cloudy 78 25.6 66 18.9 67 67 S 7 11 29.99 1016 10 16 N/A
1:53 pm 13:53 Mostly Sunny 80 26.7 65 18.3 60 60 WSW 7 11 29.98 1015 10 16 N/A
2:53 pm 14:53 Partly Cloudy 81 27.2 66 18.9 61 61 SW 7 11 29.96 1014 10 16 N/A
3:53 pm 15:53 Partly Cloudy 82 27.8 64 17.8 55 55 VRB 3 6 29.93 1013 10 16 N/A
4:53 pm 16:53 Partly Cloudy 81 27.2 65 18.3 58 58 SSW 10 17 29.91 1013 10 16 N/A
5:53 pm 17:53 Partly Cloudy 82 27.8 63 17.2 53 53 WSW 13 20 29.91 1013 10 16 N/A
6:33 pm 18:33 Cloudy 75 23.9 62 16.7 64 64 N 17 28 29.94 1014 10 16 N/A
6:53 pm 18:53 Mostly Cloudy 73 22.8 62 16.7 69 69 N 12 19 29.94 1014 10 16 N/A
7:17 pm 19:17 Partly Cloudy with Nearby Thunderstorms 71 21.7 62 16.7 73 73 NNE 10 17 29.96 1014 10 16 0.00 0.00
7:42 pm 19:42 Mostly Cloudy with Thunderstorms 70 21.1 62 16.7 76 76 NNW 10 17 29.97 1015 10 16 0.01 0.25
7:53 pm 19:53 Mostly Cloudy with Thunderstorms 69 20.6 63 17.2 81 81 NNW 6 9 29.96 1015 4 6 0.03 0.76
8:13 pm 20:13 Cloudy with Light Rain 67 19.4 65 18.3 93 93 ESE 6 9 29.97 1015 6 10 0.04 1.02
8:53 pm 20:53 Mostly Clear with Mist and Fog 68 20 65 18.3 90 90 NE 3 6 29.95 1014 6 10 0.04 1.02
9:53 pm 21:53 Clear 67 19.4 64 17.8 91 91 N N/A 29.95 1014 10 16 N/A
10:53 pm 22:53 Clear 65 18.3 64 17.8 97 97 N N/A 29.96 1015 10 16 N/A
11:53 pm 23:53 Clear 65 18.3 64 17.8 97 97 N N/A 29.96 1015 8 13 N/A

Powered by AerisWeather